MITEE-1 (47314 NORAD) Tracking and Keplerian Element Data

This shows tracking and keplerian element data for the satellite.

Feedback or suggestion? Click here.




ElementValue
Catalog47314
NameMITEE-1
Epoch Orbit1277
Epoch Day101.92195193
Epoch Year2021
RAAN179.6269
Inclination60.6855
Eccentricity0.0024053
Argument of Perigee356.7145
Mean Anonmoly3.3779
Mean Motion15.22727899
Decay Rate1.215E-05
L11 47314U 21002F 21101.92195193 .00001215 00000-0 63099-4 0 9998
L22 47314 60.6855 179.6269 0024053 356.7145 3.3779 15.22727899 12774

Live tracking and technical data element details for MITEE-1 (NORAD 47314). MITEE-1 can be tracked NOW for your location showing map with azimuth and elevation plus other details from your city location.

Track the satellite on the map from your city or location and see movement details for azimuth, elevation, latitude, longitude, range, height, and movement on the map or in text.







IsCatalogInMostPopularTable: catalog: 47314, numindb: 20
Update: records affected: 1



GetName: 47314 MITEE-1

Hit Count: updated at: Tue, 13 Apr 2021 04:37:13 GMT